Location: Dillon
(41.1766°N, 107.0923°W)
Time: 11:38:17
(UTC+00:00)

AO-92 - Pass Details

Date: 08 July 2022
Orbit: 469 x 481 km, 97.4° (Epoch: 09 August)

Event Time Altitude Azimuth Distance (km) Brightness Sun altitude
Exits shadow 03:59:59 - 87° (E) 1,717 ? -12.1°
Reaches altitude 10° 04:00:23 10° 81° (E) 1,661 ? -12.2°
Maximum altitude 04:01:21 11° 65° (ENE) 1,607 ? -12.3°
Drops below altitude 10° 04:02:20 10° 49° (NE) 1,667 ? -12.5°
Sets 04:05:50 0° 12° (NNE) 2,557 ? -12.9°
